Eagle, AK

3:02 PM AKDT on July 25, 2017 (GMT -0800)
Eagle

Weather History for PAEG - May, 2013

Change the Weather History Date:

Wednesday, May 29, 2013

  Actual Average (PABN) Record (PABN)
Temperature  
Mean Temperature 56 °F -  
Max Temperature 79 °F 52 °F 73 °F (1998)
Min Temperature 35 °F 41 °F 35 °F (2012)
Degree Days  
Heating Degree Days 9    
Growing Degree Days 6 (Base 50)    
Moisture  
Dew Point 41 °F    
Average Humidity 57    
Maximum Humidity 89    
Minimum Humidity 29    
Precipitation  
Precipitation 0.00 in - - ()
Sea Level Pressure  
Sea Level Pressure 29.73 in    
Wind  
Wind Speed 2 mph (SE)    
Max Wind Speed 14 mph    
Max Gust Speed 31 mph    
Visibility 10 miles    
Events Rain    
Averages and records for this station are not official NWS values.
T = Trace of Precipitation, MM = Missing Value Source: NWS Daily Summary

Daily Weather History Graph

Daily Weather History Graph

Search for Another Location

Airport or City:

Trip Planner

Search our weather history database for the weather conditions in past years. The results will help you decide how hot, cold, wet, or windy it might be!

Date:

Astronomy

May. 29, 2013 Rise Set
Actual Time 3:15 AM AKDT 11:31 PM AKDT
Civil Twilight Sun does not set Sun does not set
Nautical Twilight Sun does not set Sun does not set
Astronomical Twilight Sun does not set Sun does not set
Moon 1:33 AM AKDT (5/29) 9:57 AM AKDT (5/29)
Length of Visible Light 24h 00m
Length of Day
20h 16m
Waning Gibbous, 71% of the Moon is Illuminated
May 29
Waning Gibbous
May 31
Last Quarter
Jun 8
New
Jun 16
First Quarter
Jun 23
Full

Hourly Weather History & Observations

Time (AKDT) Temp. Dew Point Humidity Pressure Visibility Wind Dir Wind Speed Gust Speed Precip Events Conditions
12:53 AM 43.0 °F 36.0 °F 76% 29.73 in 10.0 mi Calm Calm - N/A   Clear
1:53 AM 39.0 °F 35.1 °F 86% 29.74 in 10.0 mi Calm Calm - N/A   Clear
2:53 AM 36.0 °F 32.0 °F 86% 29.75 in 10.0 mi Calm Calm - N/A   Clear
3:53 AM 35.1 °F 32.0 °F 89% 29.75 in 10.0 mi Calm Calm - N/A   Clear
4:53 AM 37.9 °F 34.0 °F 86% 29.76 in 10.0 mi Calm Calm - N/A   Partly Cloudy
5:53 AM 46.0 °F 37.0 °F 71% 29.75 in 10.0 mi Calm Calm - N/A   Scattered Clouds
6:53 AM 51.1 °F 37.9 °F 61% 29.75 in 10.0 mi Calm Calm - N/A   Clear
7:53 AM 52.0 °F 39.0 °F 61% 29.75 in 10.0 mi Calm Calm - N/A   Clear
8:53 AM 59.0 °F 39.9 °F 49% 29.74 in 10.0 mi Calm Calm - N/A   Clear
9:53 AM 63.0 °F 39.9 °F 43% 29.73 in 10.0 mi Variable 4.6 mph - N/A   Clear
10:53 AM 69.1 °F 39.9 °F 35% 29.72 in 10.0 mi Variable 3.5 mph - N/A   Scattered Clouds
11:53 AM 71.1 °F 41.0 °F 34% 29.71 in 10.0 mi Variable 6.9 mph - N/A   Partly Cloudy
12:53 PM 73.9 °F 42.1 °F 32% 29.70 in 10.0 mi Variable 6.9 mph - N/A   Scattered Clouds
1:53 PM 75.9 °F 42.1 °F 30% 29.68 in 10.0 mi ENE 6.9 mph - N/A   Partly Cloudy
2:53 PM 77.0 °F 42.1 °F 29% 29.67 in 10.0 mi Calm Calm - N/A   Partly Cloudy
3:53 PM 66.9 °F 43.0 °F 42% 29.70 in 10.0 mi SW 13.8 mph 31.1 mph 0.00 in Rain Light Rain
4:53 PM 61.0 °F 53.1 °F 75% 29.74 in 9.0 mi ESE 3.5 mph - 0.00 in Rain Light Rain
5:53 PM 66.9 °F 46.9 °F 49% 29.72 in 10.0 mi Calm Calm - 0.00 in   Scattered Clouds
6:53 PM 66.9 °F 48.0 °F 51% 29.71 in 10.0 mi Calm Calm - N/A   Clear
7:53 PM 66.9 °F 46.9 °F 49% 29.73 in 10.0 mi SE 6.9 mph - N/A   Overcast
8:53 PM 66.9 °F 46.9 °F 49% 29.73 in 10.0 mi SSE 8.1 mph 18.4 mph N/A   Clear
9:53 PM 64.9 °F 46.0 °F 50% 29.74 in 10.0 mi SE 4.6 mph - N/A   Clear
10:53 PM 57.9 °F 46.9 °F 67% 29.75 in 10.0 mi SSE 4.6 mph - N/A   Clear
11:53 PM 50.0 °F 44.1 °F 80% 29.77 in 10.0 mi Calm Calm - N/A   Clear